Flag for China Weather past 2 weeks in Tianjin, Tianjin Municipality, China

Now
68 °F

Fog.


Feels Like: 68 °F
Forecast: 58 / 71 °F
Wind: 8 mph from Northeast

Location: Tianjin / Zhangguizhu

Current Time: Sep 23, 2014 at 8:33:36 AM

Latest Report: Sep 23, 2014 at 8:00 AM


Visibility: 1 mi

Pressure: 30.04 "Hg

Humidity: 88%

Dew point: 64 °F

Location of TianjinLocation

Historic Weather in Tianjin — Graph

°F

Tianjin temperature yesterday

Maximum temperature yesterday: 79 °F (at 12:00 PM)
Minimum temperature yesterday: 66 °F (at 2:30 AM)
Average temperature yesterday: 72 °F

Past Weeks' High & Low Weather Summary

 TemperatureHumidityPressure
High84 °F (Sep 9, 12:30 PM)94% (Sep 18, 5:30 AM)30.18 "Hg (Sep 18, 5:30 AM)
Low54 °F (Sep 18, 5:30 AM)13% (Sep 15, 3:30 PM)29.77 "Hg (Sep 8, 4:00 PM)
Average70 °F64%29.98 "Hg
* Reported Sep 8 7:00 AM — Sep 23 7:30 AM, Tianjin, Weather by CustomWeather, © 2014

Note: Actual official high and low records may vary slightly from our data, if they occured in-between our weather recording intervals... More about our weather records

Advertising

Tianjin weather history for previous 24 hours

 ConditionsComfort  
Time TempWeatherWind HumidityBarometerVisibility
7:30 AM
Sep 23
68 °FFog.6 mph88%30.04 "Hg1 mi
7:00 AM68 °FFog.8 mph88%30.04 "Hg1 mi
6:30 AM68 °FFog.6 mph88%30.04 "Hg1 mi
6:00 AM66 °FFog.6 mph94%30.04 "Hg1 mi
5:30 AM66 °FFog.8 mph94%30.04 "Hg1 mi
5:00 AM66 °FFog.10 mph94%30.01 "Hg1 mi
4:30 AM68 °FFog.8 mph94%30.01 "Hg1 mi
4:00 AM68 °FFog.6 mph94%30.01 "Hg1 mi
3:30 AM68 °FFog.8 mph94%30.01 "Hg1 mi
3:00 AM70 °FFog.3 mph94%30.01 "Hg1 mi
2:30 AM70 °FFog.6 mph94%30.01 "Hg1 mi
2:00 AM70 °FFog.3 mph94%30.01 "Hg1 mi
1:30 AM70 °FFog.6 mph94%30.04 "Hg1 mi
1:00 AM70 °FFog.3 mph88%30.04 "Hg1 mi
12:30 AM70 °FFog.1 mph94%30.04 "Hg1 mi
12:00 AM70 °FFog.1 mph94%30.04 "Hg1 mi
11:30 PM
Sep 22
70 °FFog.3 mph94%30.04 "Hg1 mi
11:00 PM70 °FFog.1 mph94%30.04 "Hg1 mi
10:30 PM70 °FFog.1 mph94%30.04 "Hg1 mi
10:00 PM72 °FFog.1 mph88%30.04 "Hg1 mi
9:30 PM72 °FFog.3 mph88%30.04 "Hg1 mi
9:00 PM72 °FFog.3 mph88%30.04 "Hg1 mi
8:30 PM72 °FFog.3 mph88%30.04 "Hg1 mi
8:00 PM72 °FFog.6 mph88%30.04 "Hg1 mi
7:30 PM72 °FSprinkles. Fog.6 mph88%30.04 "Hg1 mi
7:00 PM72 °FSprinkles. Fog.3 mph88%30.01 "Hg1 mi
6:30 PM75 °FSprinkles. Fog.3 mph74%30.01 "Hg1 mi
6:00 PM75 °FHaze.6 mph74%30.01 "Hg1 mi
5:30 PM75 °FHaze.6 mph69%30.01 "Hg1 mi
5:00 PM77 °FHaze.6 mph65%29.98 "Hg2 mi
4:30 PM77 °FHaze.8 mph65%29.98 "Hg2 mi
4:00 PM79 °FHaze.6 mph61%29.98 "Hg2 mi
3:30 PM79 °FHaze.6 mph61%29.98 "Hg2 mi
3:00 PM79 °FHaze.6 mph61%30.01 "Hg2 mi
2:30 PM79 °FHaze.3 mph61%30.01 "Hg3 mi
2:00 PM79 °FHaze.6 mph61%30.01 "Hg3 mi
1:30 PM79 °FHaze.6 mph61%30.04 "Hg3 mi
1:00 PM79 °FHaze.6 mph61%30.04 "Hg3 mi
12:30 PM79 °FHaze.6 mph61%30.04 "Hg3 mi
12:00 PM79 °FClear.6 mph61%30.07 "Hg4 mi
11:30 AM77 °FPassing clouds.8 mph65%30.07 "Hg4 mi
11:00 AM77 °FPassing clouds.8 mph65%30.07 "Hg4 mi
10:30 AM77 °FPassing clouds.6 mph65%30.09 "Hg5 mi
10:00 AM75 °FPassing clouds.8 mph74%30.09 "HgN/A
9:30 AM75 °FPassing clouds.8 mph74%30.09 "HgN/A
9:00 AM73 °FClear.6 mph78%30.09 "Hg5 mi
8:30 AM72 °FFog.3 mph83%30.09 "Hg2 mi
8:00 AM70 °FFog.1 mph83%30.09 "Hg2 mi
Weather by CustomWeather, © 2014

See weather overviewHow to use our weather pages